Year,Month,Day,Hour,Minute,Value (Times are PST for temperature in C)
2015,07,03,00,00,18.90
2015,07,03,00,01,18.90
2015,07,03,00,02,18.90
2015,07,03,00,03,18.90
2015,07,03,00,04,18.90
2015,07,03,00,05,18.90
2015,07,03,00,06,18.90
2015,07,03,00,07,18.90
2015,07,03,00,08,18.90
2015,07,03,00,09,18.80
2015,07,03,00,10,18.80
2015,07,03,00,11,18.80
2015,07,03,00,13,18.80
2015,07,03,00,14,18.90
2015,07,03,00,15,18.90
2015,07,03,00,16,18.90
2015,07,03,00,17,18.90
2015,07,03,00,18,18.90
2015,07,03,00,19,18.90
2015,07,03,00,20,18.90
2015,07,03,00,21,18.90
2015,07,03,00,22,18.90
2015,07,03,00,23,19.10
2015,07,03,00,24,19.10
2015,07,03,00,25,19.10
2015,07,03,00,26,19.20
2015,07,03,00,27,19.20
2015,07,03,00,28,19.20
2015,07,03,00,29,19.20
2015,07,03,00,30,19.20
2015,07,03,00,31,19.20
2015,07,03,00,32,19.20
2015,07,03,00,33,19.20
2015,07,03,00,34,19.30
2015,07,03,00,35,19.30
2015,07,03,00,36,19.30
2015,07,03,00,37,19.20
2015,07,03,00,38,19.20
2015,07,03,00,39,19.20
2015,07,03,00,40,19.20
2015,07,03,00,41,19.20
2015,07,03,00,42,19.20
2015,07,03,00,43,19.20
2015,07,03,00,44,19.20
2015,07,03,00,45,19.10
2015,07,03,00,46,19.00
2015,07,03,00,47,18.90
2015,07,03,00,48,18.90
2015,07,03,00,49,18.80
2015,07,03,00,50,18.80
2015,07,03,00,51,18.80
2015,07,03,00,52,18.80
2015,07,03,00,53,18.80
2015,07,03,00,54,18.80
2015,07,03,00,55,18.80
2015,07,03,00,56,18.80
2015,07,03,00,57,18.80
2015,07,03,00,59,18.80
2015,07,03,01,00,18.80
2015,07,03,01,01,18.80
2015,07,03,01,02,18.80
2015,07,03,01,03,18.80
2015,07,03,01,04,18.80
2015,07,03,01,05,19.10
2015,07,03,01,06,19.40
2015,07,03,01,07,19.70
2015,07,03,01,08,19.80
2015,07,03,01,09,19.80
2015,07,03,01,10,20.00
2015,07,03,01,11,20.10
2015,07,03,01,12,20.10
2015,07,03,01,13,20.10
2015,07,03,01,14,20.00
2015,07,03,01,15,19.80
2015,07,03,01,16,19.70
2015,07,03,01,17,19.60
2015,07,03,01,18,19.50
2015,07,03,01,19,19.40
2015,07,03,01,20,19.40
2015,07,03,01,21,19.40
2015,07,03,01,22,19.60
2015,07,03,01,23,19.60
2015,07,03,01,24,19.70
2015,07,03,01,25,19.70
2015,07,03,01,26,19.70
2015,07,03,01,27,19.80
2015,07,03,01,28,19.90
2015,07,03,01,29,20.10
2015,07,03,01,30,20.10
2015,07,03,01,31,19.90
2015,07,03,01,32,19.90
2015,07,03,01,33,19.90
2015,07,03,01,34,19.80
2015,07,03,01,35,19.70
2015,07,03,01,36,19.60
2015,07,03,01,37,19.70
2015,07,03,01,38,19.70
2015,07,03,01,39,19.70
2015,07,03,01,40,19.70
2015,07,03,01,41,19.80
2015,07,03,01,42,19.90
2015,07,03,01,43,20.10
2015,07,03,01,44,20.10
2015,07,03,01,45,20.20
2015,07,03,01,46,20.20
2015,07,03,01,47,20.10
2015,07,03,01,48,20.00
2015,07,03,01,49,19.80
2015,07,03,01,50,19.70
2015,07,03,01,51,19.50
2015,07,03,01,52,19.30
2015,07,03,01,53,19.20
2015,07,03,01,54,19.00
2015,07,03,01,55,18.90
2015,07,03,01,56,18.80
2015,07,03,01,57,18.80
2015,07,03,01,58,18.90
2015,07,03,01,59,18.90
2015,07,03,02,00,18.90
2015,07,03,02,01,18.90
2015,07,03,02,02,19.00
2015,07,03,02,03,19.10
2015,07,03,02,04,19.10
2015,07,03,02,05,19.20
2015,07,03,02,06,19.30
2015,07,03,02,07,19.30
2015,07,03,02,08,19.40
2015,07,03,02,09,19.40
2015,07,03,02,10,19.30
2015,07,03,02,11,19.30
2015,07,03,02,12,19.20
2015,07,03,02,13,19.20
2015,07,03,02,14,19.10
2015,07,03,02,15,18.90
2015,07,03,02,16,18.80
2015,07,03,02,17,18.70
2015,07,03,02,18,18.60
2015,07,03,02,19,18.60
2015,07,03,02,20,18.60
2015,07,03,02,21,18.50
2015,07,03,02,22,18.40
2015,07,03,02,23,18.30
2015,07,03,02,24,18.20
2015,07,03,02,25,18.00
2015,07,03,02,26,17.90
2015,07,03,02,27,17.80
2015,07,03,02,28,17.70
2015,07,03,02,29,17.70
2015,07,03,02,30,17.60
2015,07,03,02,31,17.60
2015,07,03,02,32,17.50
2015,07,03,02,33,17.40
2015,07,03,02,34,17.40
2015,07,03,02,35,17.30
2015,07,03,02,36,17.30
2015,07,03,02,37,17.30
2015,07,03,02,38,17.20
2015,07,03,02,39,17.10
2015,07,03,02,40,17.10
2015,07,03,02,41,17.10
2015,07,03,02,42,17.10
2015,07,03,02,43,17.00
2015,07,03,02,44,16.90
2015,07,03,02,45,16.90
2015,07,03,02,46,16.90
2015,07,03,02,47,16.80
2015,07,03,02,48,16.90
2015,07,03,02,49,16.90
2015,07,03,02,50,16.90
2015,07,03,02,51,16.80
2015,07,03,02,52,16.80
2015,07,03,02,53,16.80
2015,07,03,02,54,16.80
2015,07,03,02,55,16.80
2015,07,03,02,56,16.80
2015,07,03,02,57,16.90
2015,07,03,02,58,16.80
2015,07,03,02,59,16.80
2015,07,03,03,00,16.80
2015,07,03,03,01,16.90
2015,07,03,03,02,17.10
2015,07,03,03,03,17.20
2015,07,03,03,04,17.20
2015,07,03,03,05,17.30
2015,07,03,03,06,17.30
2015,07,03,03,07,17.20
2015,07,03,03,08,17.20
2015,07,03,03,09,17.20
2015,07,03,03,10,17.30
2015,07,03,03,11,17.30
2015,07,03,03,12,17.40
2015,07,03,03,13,17.40
2015,07,03,03,14,17.50
2015,07,03,03,15,17.60
2015,07,03,03,16,17.70
2015,07,03,03,17,17.80
2015,07,03,03,18,17.80
2015,07,03,03,19,17.80
2015,07,03,03,20,17.80
2015,07,03,03,21,17.80
2015,07,03,03,22,17.70
2015,07,03,03,23,17.70
2015,07,03,03,24,17.60
2015,07,03,03,25,17.40
2015,07,03,03,26,17.40
2015,07,03,03,27,17.30
2015,07,03,03,28,17.30
2015,07,03,03,29,17.30
2015,07,03,03,30,17.30
2015,07,03,03,31,17.30
2015,07,03,03,32,17.20
2015,07,03,03,33,17.20
2015,07,03,03,34,17.10
2015,07,03,03,35,17.10
2015,07,03,03,36,17.00
2015,07,03,03,37,17.00
2015,07,03,03,38,16.90
2015,07,03,03,39,16.90
2015,07,03,03,40,16.90
2015,07,03,03,41,16.90
2015,07,03,03,42,16.90
2015,07,03,03,43,17.00
2015,07,03,03,44,17.00
2015,07,03,03,45,17.10
2015,07,03,03,46,17.10
2015,07,03,03,47,17.10
2015,07,03,03,48,17.20
2015,07,03,03,49,17.30
2015,07,03,03,50,17.30
2015,07,03,03,51,17.30
2015,07,03,03,52,17.30
2015,07,03,03,53,17.30
2015,07,03,03,54,17.30
2015,07,03,03,55,17.30
2015,07,03,03,56,17.20
2015,07,03,03,57,17.20
2015,07,03,03,58,17.20
2015,07,03,03,59,17.20
2015,07,03,04,00,17.20
2015,07,03,04,01,17.20
2015,07,03,04,02,17.20
2015,07,03,04,03,17.10
2015,07,03,04,04,17.10
2015,07,03,04,05,17.10
2015,07,03,04,06,17.00
2015,07,03,04,07,17.00
2015,07,03,04,08,16.90
2015,07,03,04,09,17.00
2015,07,03,04,10,17.00
2015,07,03,04,11,17.00
2015,07,03,04,12,17.00
2015,07,03,04,13,17.10
2015,07,03,04,14,17.10
2015,07,03,04,15,17.10
2015,07,03,04,16,17.10
2015,07,03,04,17,17.10
2015,07,03,04,18,17.20
2015,07,03,04,19,17.20
2015,07,03,04,20,17.20
2015,07,03,04,21,17.30
2015,07,03,04,22,17.20
2015,07,03,04,23,17.20
2015,07,03,04,24,17.20
2015,07,03,04,25,17.20
2015,07,03,04,26,17.30
2015,07,03,04,27,17.30
2015,07,03,04,28,17.30
2015,07,03,04,29,17.30
2015,07,03,04,30,17.30
2015,07,03,04,31,17.40
2015,07,03,04,32,17.50
2015,07,03,04,33,17.70
2015,07,03,04,34,17.80
2015,07,03,04,35,17.90
2015,07,03,04,36,17.90
2015,07,03,04,37,17.80
2015,07,03,04,38,17.80
2015,07,03,04,39,17.80
2015,07,03,04,40,17.70
2015,07,03,04,41,17.70
2015,07,03,04,42,17.80
2015,07,03,04,43,18.00
2015,07,03,04,44,18.10
2015,07,03,04,45,18.10
2015,07,03,04,46,18.10
2015,07,03,04,47,18.00
2015,07,03,04,48,17.90
2015,07,03,04,49,17.80
2015,07,03,04,50,17.80
2015,07,03,04,51,17.70
2015,07,03,04,52,17.70
2015,07,03,04,53,17.60
2015,07,03,04,54,17.50
2015,07,03,04,55,17.40
2015,07,03,04,56,17.40
2015,07,03,04,57,17.40
2015,07,03,04,58,17.30
2015,07,03,04,59,17.30
2015,07,03,05,00,17.20
2015,07,03,05,01,17.10
2015,07,03,05,02,17.00
2015,07,03,05,03,16.90
2015,07,03,05,04,16.80
2015,07,03,05,05,16.80
2015,07,03,05,06,16.80
2015,07,03,05,07,16.70
2015,07,03,05,08,16.70
2015,07,03,05,09,16.70
2015,07,03,05,10,16.70
2015,07,03,05,11,16.60
2015,07,03,05,12,16.60
2015,07,03,05,13,16.60
2015,07,03,05,14,16.50
2015,07,03,05,15,16.50
2015,07,03,05,16,16.40
2015,07,03,05,17,16.40
2015,07,03,05,18,16.40
2015,07,03,05,19,16.40
2015,07,03,05,20,16.30
2015,07,03,05,21,16.30
2015,07,03,05,22,16.20
2015,07,03,05,23,16.10
2015,07,03,05,24,16.10
2015,07,03,05,25,16.00
2015,07,03,05,26,15.90
2015,07,03,05,27,15.90
2015,07,03,05,28,15.80
2015,07,03,05,29,15.80
2015,07,03,05,30,15.80
2015,07,03,05,31,15.70
2015,07,03,05,32,15.70
2015,07,03,05,33,15.60
2015,07,03,05,34,15.60
2015,07,03,05,35,15.60
2015,07,03,05,36,15.60
2015,07,03,05,37,15.50
2015,07,03,05,38,15.50
2015,07,03,05,39,15.50
2015,07,03,05,40,15.60
2015,07,03,05,41,15.50
2015,07,03,05,42,15.40
2015,07,03,05,43,15.40
2015,07,03,05,44,15.50
2015,07,03,05,45,15.80
2015,07,03,05,46,16.20
2015,07,03,05,47,16.50
2015,07,03,05,48,16.70
2015,07,03,05,49,16.80
2015,07,03,05,50,16.90
2015,07,03,05,51,16.90
2015,07,03,05,52,16.90
2015,07,03,05,53,17.00
2015,07,03,05,54,17.00
2015,07,03,05,55,16.90
2015,07,03,05,56,16.90
2015,07,03,05,57,16.90
2015,07,03,05,58,16.90
2015,07,03,05,59,16.90
2015,07,03,06,00,16.80
2015,07,03,06,01,16.80
2015,07,03,06,02,16.80
2015,07,03,06,03,16.80
2015,07,03,06,04,16.70
2015,07,03,06,05,16.70
2015,07,03,06,06,16.60
2015,07,03,06,07,16.60
2015,07,03,06,08,16.50
2015,07,03,06,09,16.40
2015,07,03,06,10,16.40
2015,07,03,06,11,16.30
2015,07,03,06,12,16.30
2015,07,03,06,13,16.20
2015,07,03,06,14,16.20
2015,07,03,06,15,16.20
2015,07,03,06,16,16.20
2015,07,03,06,17,16.30
2015,07,03,06,18,16.40
2015,07,03,06,19,16.40
2015,07,03,06,20,16.40
2015,07,03,06,21,16.40
2015,07,03,06,22,16.30
2015,07,03,06,23,16.30
2015,07,03,06,24,16.30
2015,07,03,06,25,16.30
2015,07,03,06,26,16.30
2015,07,03,06,27,16.40
2015,07,03,06,28,16.40
2015,07,03,06,29,16.60
2015,07,03,06,30,16.70
2015,07,03,06,31,16.70
2015,07,03,06,32,16.80
2015,07,03,06,33,16.90
2015,07,03,06,34,17.00
2015,07,03,06,35,17.10
2015,07,03,06,36,17.10
2015,07,03,06,37,17.20
2015,07,03,06,38,17.20
2015,07,03,06,39,17.20
2015,07,03,06,40,17.10
2015,07,03,06,41,17.10
2015,07,03,06,42,17.00
2015,07,03,06,43,16.90
2015,07,03,06,44,16.90
2015,07,03,06,45,17.20
2015,07,03,06,46,17.40
2015,07,03,06,47,17.70
2015,07,03,06,48,17.90
2015,07,03,06,49,18.20
2015,07,03,06,50,18.40
2015,07,03,06,51,18.50
2015,07,03,06,52,18.50
2015,07,03,06,53,18.40
2015,07,03,06,54,18.30
2015,07,03,06,55,18.20
2015,07,03,06,56,18.00
2015,07,03,06,57,17.70
2015,07,03,06,58,17.60
2015,07,03,06,59,17.40
2015,07,03,07,00,17.30
2015,07,03,07,01,17.20
2015,07,03,07,02,17.20
2015,07,03,07,03,17.20
2015,07,03,07,04,17.30
2015,07,03,07,05,17.30
2015,07,03,07,06,17.40
2015,07,03,07,07,17.50
2015,07,03,07,08,17.60
2015,07,03,07,09,17.70
2015,07,03,07,10,17.80
2015,07,03,07,11,17.80
2015,07,03,07,12,17.90
2015,07,03,07,13,18.00
2015,07,03,07,14,18.10
2015,07,03,07,15,18.10
2015,07,03,07,16,18.10
2015,07,03,07,17,18.10
2015,07,03,07,18,18.20
2015,07,03,07,19,18.20
2015,07,03,07,20,18.20
2015,07,03,07,21,18.20
2015,07,03,07,22,18.30
2015,07,03,07,23,18.30
2015,07,03,07,24,18.30
2015,07,03,07,25,18.30
2015,07,03,07,26,18.40
2015,07,03,07,27,18.50
2015,07,03,07,28,18.50
2015,07,03,07,29,18.50
2015,07,03,07,30,18.60
2015,07,03,07,31,18.50
2015,07,03,07,32,18.50
2015,07,03,07,33,18.50
2015,07,03,07,34,18.60
2015,07,03,07,35,18.60
2015,07,03,07,36,18.60
2015,07,03,07,37,18.60
2015,07,03,07,38,18.70
2015,07,03,07,39,18.70
2015,07,03,07,40,18.80
2015,07,03,07,41,18.80
2015,07,03,07,42,18.90
2015,07,03,07,43,19.00
2015,07,03,07,44,19.10
2015,07,03,07,45,19.20
2015,07,03,07,46,19.20
2015,07,03,07,47,19.30
2015,07,03,07,48,19.30
2015,07,03,07,49,19.40
2015,07,03,07,50,19.40
2015,07,03,07,51,19.40
2015,07,03,07,52,19.60
2015,07,03,07,53,19.70
2015,07,03,07,54,19.80
2015,07,03,07,55,19.90
2015,07,03,07,56,20.00
2015,07,03,07,57,20.10
2015,07,03,07,58,20.10
2015,07,03,07,59,20.20
2015,07,03,08,00,20.30
2015,07,03,08,01,20.40
2015,07,03,08,02,20.50
2015,07,03,08,03,20.60
2015,07,03,08,04,20.60
2015,07,03,08,05,20.70
2015,07,03,08,06,20.80
2015,07,03,08,07,20.90
2015,07,03,08,08,20.90
2015,07,03,08,09,21.10
2015,07,03,08,10,21.10
2015,07,03,08,11,21.20
2015,07,03,08,12,21.30
2015,07,03,08,13,21.40
2015,07,03,08,14,21.60
2015,07,03,08,15,21.70
2015,07,03,08,16,21.80
2015,07,03,08,17,21.90
2015,07,03,08,18,22.10
2015,07,03,08,19,22.20
2015,07,03,08,20,22.20
2015,07,03,08,21,22.30
2015,07,03,08,22,22.30
2015,07,03,08,23,22.40
2015,07,03,08,24,22.40
2015,07,03,08,25,22.40
2015,07,03,08,26,22.40
2015,07,03,08,27,22.40
2015,07,03,08,28,22.40
2015,07,03,08,29,22.50
2015,07,03,08,30,22.60
2015,07,03,08,31,22.60
2015,07,03,08,32,22.70
2015,07,03,08,33,22.70
2015,07,03,08,34,22.80
2015,07,03,08,35,22.90
2015,07,03,08,36,23.10
2015,07,03,08,37,23.20
2015,07,03,08,38,23.30
2015,07,03,08,39,23.40
2015,07,03,08,40,23.40
2015,07,03,08,41,23.40
2015,07,03,08,42,23.40
2015,07,03,08,43,23.50
2015,07,03,08,44,23.60
2015,07,03,08,45,23.60
2015,07,03,08,46,23.70
2015,07,03,08,47,23.70
2015,07,03,08,48,23.80
2015,07,03,08,49,23.90
2015,07,03,08,51,24.00
2015,07,03,08,52,24.10
2015,07,03,08,53,24.10
2015,07,03,08,54,24.10
2015,07,03,08,55,24.20
2015,07,03,08,56,24.30
2015,07,03,08,57,24.30
2015,07,03,08,58,24.40
2015,07,03,08,59,24.50
2015,07,03,09,00,24.60
2015,07,03,09,02,24.70
2015,07,03,09,03,24.70
2015,07,03,09,04,24.70
2015,07,03,09,05,24.60
2015,07,03,09,06,24.60
2015,07,03,09,07,24.60
2015,07,03,09,08,24.70
2015,07,03,09,09,24.60
2015,07,03,09,10,24.60
2015,07,03,09,11,24.60
2015,07,03,09,12,24.40
2015,07,03,09,13,24.30
2015,07,03,09,14,24.20
2015,07,03,09,15,24.10
2015,07,03,09,16,24.10
2015,07,03,09,17,24.10
2015,07,03,09,18,24.10
2015,07,03,09,19,24.10
2015,07,03,09,20,24.20
2015,07,03,09,21,24.30
2015,07,03,09,22,24.40
2015,07,03,09,23,24.60
2015,07,03,09,24,24.70
2015,07,03,09,25,24.70
2015,07,03,09,26,24.80
2015,07,03,09,27,24.90
2015,07,03,09,28,24.90
2015,07,03,09,29,24.90
2015,07,03,09,30,24.90
2015,07,03,09,31,24.80
2015,07,03,09,32,24.80
2015,07,03,09,33,24.80
2015,07,03,09,34,24.70
2015,07,03,09,35,24.60
2015,07,03,09,36,24.50
2015,07,03,09,37,24.50
2015,07,03,09,38,24.60
2015,07,03,09,39,24.60
2015,07,03,09,40,24.60
2015,07,03,09,41,24.70
2015,07,03,09,42,24.70
2015,07,03,09,43,24.70
2015,07,03,09,44,24.70
2015,07,03,09,45,24.70
2015,07,03,09,46,24.60
2015,07,03,09,47,24.40
2015,07,03,09,48,24.30
2015,07,03,09,49,24.30
2015,07,03,09,50,24.20
2015,07,03,09,51,24.20
2015,07,03,09,52,24.30
2015,07,03,09,53,24.40
2015,07,03,09,54,24.40
2015,07,03,09,55,24.40
2015,07,03,09,56,24.50
2015,07,03,09,57,24.60
2015,07,03,09,58,24.60
2015,07,03,09,59,24.60
2015,07,03,10,00,24.70
2015,07,03,10,01,24.70
2015,07,03,10,02,24.70
2015,07,03,10,03,24.80
2015,07,03,10,04,24.80
2015,07,03,10,05,24.70
2015,07,03,10,06,24.70
2015,07,03,10,07,24.60
2015,07,03,10,08,24.50
2015,07,03,10,09,24.40
2015,07,03,10,10,24.40
2015,07,03,10,11,24.40
2015,07,03,10,12,24.40
2015,07,03,10,13,24.40
2015,07,03,10,14,24.50
2015,07,03,10,15,24.60
2015,07,03,10,16,24.70
2015,07,03,10,17,24.90
2015,07,03,10,19,25.20
2015,07,03,10,20,25.30
2015,07,03,10,21,25.40
2015,07,03,10,22,25.60
2015,07,03,10,23,25.70
2015,07,03,10,24,25.70
2015,07,03,10,25,25.80
2015,07,03,10,26,25.80
2015,07,03,10,27,25.90
2015,07,03,10,28,25.90
2015,07,03,10,29,25.90
2015,07,03,10,30,26.00
2015,07,03,10,31,26.10
2015,07,03,10,32,26.20
2015,07,03,10,33,26.20
2015,07,03,10,34,26.30
2015,07,03,10,35,26.30
2015,07,03,10,36,26.30
2015,07,03,10,37,26.20
2015,07,03,10,38,26.20
2015,07,03,10,39,26.30
2015,07,03,10,40,26.40
2015,07,03,10,41,26.50
2015,07,03,10,42,26.60
2015,07,03,10,43,26.70
2015,07,03,10,44,26.80
2015,07,03,10,45,26.90
2015,07,03,10,46,27.00
2015,07,03,10,47,27.10
2015,07,03,10,48,27.10
2015,07,03,10,49,27.10
2015,07,03,10,50,27.10
2015,07,03,10,51,27.10
2015,07,03,10,52,27.10
2015,07,03,10,53,27.10
2015,07,03,10,54,27.10
2015,07,03,10,55,27.10
2015,07,03,10,56,27.00
2015,07,03,10,57,26.90
2015,07,03,10,58,26.90
2015,07,03,10,59,26.90
2015,07,03,11,00,26.90
2015,07,03,11,01,26.90
2015,07,03,11,02,26.90
2015,07,03,11,03,26.90
2015,07,03,11,04,26.90
2015,07,03,11,05,26.90
2015,07,03,11,06,27.00
2015,07,03,11,07,27.10
2015,07,03,11,08,27.20
2015,07,03,11,09,27.20
2015,07,03,11,10,27.20
2015,07,03,11,11,27.30
2015,07,03,11,12,27.20
2015,07,03,11,13,27.30
2015,07,03,11,14,27.30
2015,07,03,11,15,27.30
2015,07,03,11,16,27.40
2015,07,03,11,17,27.50
2015,07,03,11,18,27.60
2015,07,03,11,19,27.70
2015,07,03,11,20,27.70
2015,07,03,11,21,27.70
2015,07,03,11,22,27.70
2015,07,03,11,23,27.70
2015,07,03,11,24,27.70
2015,07,03,11,25,27.70
2015,07,03,11,26,27.70
2015,07,03,11,27,27.70
2015,07,03,11,28,27.60
2015,07,03,11,29,27.60
2015,07,03,11,30,27.40
2015,07,03,11,31,27.30
2015,07,03,11,32,27.20
2015,07,03,11,33,27.20
2015,07,03,11,34,27.20
2015,07,03,11,35,27.30
2015,07,03,11,36,27.30
2015,07,03,11,37,27.30
2015,07,03,11,38,27.30
2015,07,03,11,39,27.20
2015,07,03,11,40,27.30
2015,07,03,11,41,27.20
2015,07,03,11,42,27.20
2015,07,03,11,43,27.30
2015,07,03,11,44,27.30
2015,07,03,11,45,27.30
2015,07,03,11,46,27.30
2015,07,03,11,47,27.30
2015,07,03,11,48,27.40
2015,07,03,11,49,27.40
2015,07,03,11,50,27.50
2015,07,03,11,51,27.60
2015,07,03,11,52,27.60
2015,07,03,11,53,27.70
2015,07,03,11,54,27.70
2015,07,03,11,55,27.80
2015,07,03,11,56,27.80
2015,07,03,11,57,27.80
2015,07,03,11,58,27.80
2015,07,03,11,59,27.90
2015,07,03,12,00,27.90
2015,07,03,12,01,27.90
2015,07,03,12,02,27.90
2015,07,03,12,03,28.00
2015,07,03,12,04,28.10
2015,07,03,12,05,28.10
2015,07,03,12,06,28.10
2015,07,03,12,07,28.10
2015,07,03,12,08,28.10
2015,07,03,12,09,28.10
2015,07,03,12,10,28.00
2015,07,03,12,11,27.90
2015,07,03,12,12,27.80
2015,07,03,12,13,27.80
2015,07,03,12,14,27.80
2015,07,03,12,15,27.80
2015,07,03,12,16,27.80
2015,07,03,12,17,27.80
2015,07,03,12,18,27.80
2015,07,03,12,19,27.80
2015,07,03,12,20,27.80
2015,07,03,12,21,27.90
2015,07,03,12,22,28.00
2015,07,03,12,23,28.10
2015,07,03,12,24,28.10
2015,07,03,12,25,28.10
2015,07,03,12,26,28.10
2015,07,03,12,27,28.10
2015,07,03,12,28,28.10
2015,07,03,12,29,28.10
2015,07,03,12,30,28.20
2015,07,03,12,31,28.20
2015,07,03,12,32,28.20
2015,07,03,12,33,28.20
2015,07,03,12,34,28.30
2015,07,03,12,35,28.30
2015,07,03,12,36,28.30
2015,07,03,12,37,28.40
2015,07,03,12,38,28.40
2015,07,03,12,39,28.40
2015,07,03,12,40,28.40
2015,07,03,12,41,28.50
2015,07,03,12,42,28.50
2015,07,03,12,43,28.50
2015,07,03,12,44,28.40
2015,07,03,12,45,28.50
2015,07,03,12,46,28.60
2015,07,03,12,47,28.60
2015,07,03,12,48,28.70
2015,07,03,12,49,28.70
2015,07,03,12,50,28.70
2015,07,03,12,51,28.80
2015,07,03,12,52,28.80
2015,07,03,12,53,28.70
2015,07,03,12,54,28.70
2015,07,03,12,55,28.70
2015,07,03,12,56,28.70
2015,07,03,12,57,28.80
2015,07,03,12,58,28.80
2015,07,03,12,59,28.80
2015,07,03,13,00,28.80
2015,07,03,13,01,28.70
2015,07,03,13,02,28.80
2015,07,03,13,03,28.70
2015,07,03,13,04,28.70
2015,07,03,13,05,28.70
2015,07,03,13,06,28.60
2015,07,03,13,07,28.60
2015,07,03,13,08,28.70
2015,07,03,13,09,28.80
2015,07,03,13,10,28.80
2015,07,03,13,11,28.90
2015,07,03,13,12,29.10
2015,07,03,13,13,29.20
2015,07,03,13,14,29.20
2015,07,03,13,15,29.30
2015,07,03,13,16,29.40
2015,07,03,13,17,29.40
2015,07,03,13,18,29.40
2015,07,03,13,19,29.40
2015,07,03,13,20,29.40
2015,07,03,13,21,29.40
2015,07,03,13,22,29.30
2015,07,03,13,23,29.30
2015,07,03,13,24,29.30
2015,07,03,13,25,29.30
2015,07,03,13,26,29.20
2015,07,03,13,27,29.20
2015,07,03,13,28,29.20
2015,07,03,13,29,29.30
2015,07,03,13,30,29.30
2015,07,03,13,31,29.40
2015,07,03,13,32,29.40
2015,07,03,13,33,29.30
2015,07,03,13,34,29.30
2015,07,03,13,35,29.30
2015,07,03,13,36,29.30
2015,07,03,13,37,29.30
2015,07,03,13,38,29.30
2015,07,03,13,39,29.30
2015,07,03,13,40,29.20
2015,07,03,13,41,29.20
2015,07,03,13,42,29.20
2015,07,03,13,43,29.20
2015,07,03,13,44,29.20
2015,07,03,13,45,29.20
2015,07,03,13,46,29.20
2015,07,03,13,47,29.20
2015,07,03,13,48,29.10
2015,07,03,13,49,29.10
2015,07,03,13,50,29.10
2015,07,03,13,51,29.10
2015,07,03,13,52,29.10
2015,07,03,13,53,29.00
2015,07,03,13,54,28.90
2015,07,03,13,55,29.00
2015,07,03,13,56,29.00
2015,07,03,13,57,29.10
2015,07,03,13,58,29.10
2015,07,03,13,59,29.20
2015,07,03,14,00,29.30
2015,07,03,14,01,29.40
2015,07,03,14,02,29.60
2015,07,03,14,03,29.50
2015,07,03,14,04,29.50
2015,07,03,14,05,29.50
2015,07,03,14,06,29.50
2015,07,03,14,07,29.40
2015,07,03,14,08,29.50
2015,07,03,14,09,29.60
2015,07,03,14,10,29.60
2015,07,03,14,11,29.70
2015,07,03,14,12,29.80
2015,07,03,14,13,29.80
2015,07,03,14,14,29.80
2015,07,03,14,15,29.90
2015,07,03,14,16,29.90
2015,07,03,14,17,29.90
2015,07,03,14,18,29.90
2015,07,03,14,19,29.90
2015,07,03,14,20,29.90
2015,07,03,14,21,29.90
2015,07,03,14,22,29.90
2015,07,03,14,23,29.90
2015,07,03,14,24,29.90
2015,07,03,14,25,29.80
2015,07,03,14,26,29.80
2015,07,03,14,27,29.90
2015,07,03,14,28,29.90
2015,07,03,14,29,29.90
2015,07,03,14,30,29.90
2015,07,03,14,31,29.90
2015,07,03,14,32,29.90
2015,07,03,14,33,29.80
2015,07,03,14,34,29.70
2015,07,03,14,35,29.70
2015,07,03,14,36,29.70
2015,07,03,14,37,29.80
2015,07,03,14,38,29.80
2015,07,03,14,39,29.80
2015,07,03,14,40,29.80
2015,07,03,14,41,29.80
2015,07,03,14,42,29.90
2015,07,03,14,43,30.00
2015,07,03,14,44,30.10
2015,07,03,14,45,30.10
2015,07,03,14,46,30.20
2015,07,03,14,47,30.20
2015,07,03,14,48,30.20
2015,07,03,14,49,30.10
2015,07,03,14,50,30.00
2015,07,03,14,51,30.00
2015,07,03,14,52,30.10
2015,07,03,14,53,30.20
2015,07,03,14,54,30.20
2015,07,03,14,55,30.20
2015,07,03,14,56,30.30
2015,07,03,14,57,30.30
2015,07,03,14,58,30.20
2015,07,03,14,59,30.20
2015,07,03,15,00,30.10
2015,07,03,15,01,30.10
2015,07,03,15,02,30.00
2015,07,03,15,03,30.00
2015,07,03,15,04,29.90
2015,07,03,15,05,29.90
2015,07,03,15,06,30.00
2015,07,03,15,07,30.00
2015,07,03,15,08,30.10
2015,07,03,15,09,30.10
2015,07,03,15,10,29.90
2015,07,03,15,11,29.90
2015,07,03,15,12,29.90
2015,07,03,15,13,29.80
2015,07,03,15,14,29.80
2015,07,03,15,15,29.80
2015,07,03,15,16,29.90
2015,07,03,15,17,29.90
2015,07,03,15,18,29.90
2015,07,03,15,19,30.00
2015,07,03,15,20,30.10
2015,07,03,15,21,30.10
2015,07,03,15,22,30.20
2015,07,03,15,23,30.30
2015,07,03,15,24,30.40
2015,07,03,15,25,30.50
2015,07,03,15,26,30.50
2015,07,03,15,27,30.60
2015,07,03,15,28,30.60
2015,07,03,15,29,30.50
2015,07,03,15,30,30.40
2015,07,03,15,31,30.40
2015,07,03,15,32,30.40
2015,07,03,15,33,30.40
2015,07,03,15,34,30.40
2015,07,03,15,35,30.40
2015,07,03,15,36,30.30
2015,07,03,15,37,30.40
2015,07,03,15,38,30.30
2015,07,03,15,39,30.30
2015,07,03,15,40,30.30
2015,07,03,15,41,30.30
2015,07,03,15,42,30.30
2015,07,03,15,43,30.30
2015,07,03,15,44,30.30
2015,07,03,15,45,30.30
2015,07,03,15,46,30.30
2015,07,03,15,47,30.40
2015,07,03,15,48,30.50
2015,07,03,15,49,30.60
2015,07,03,15,50,30.70
2015,07,03,15,51,30.60
2015,07,03,15,52,30.60
2015,07,03,15,53,30.70
2015,07,03,15,54,30.70
2015,07,03,15,55,30.70
2015,07,03,15,56,30.80
2015,07,03,15,57,30.80
2015,07,03,15,58,30.80
2015,07,03,15,59,30.80
2015,07,03,16,00,30.90
2015,07,03,16,01,30.90
2015,07,03,16,02,30.90
2015,07,03,16,03,30.90
2015,07,03,16,04,30.90
2015,07,03,16,05,30.90
2015,07,03,16,06,30.90
2015,07,03,16,07,30.80
2015,07,03,16,08,30.70
2015,07,03,16,09,30.60
2015,07,03,16,10,30.60
2015,07,03,16,11,30.50
2015,07,03,16,12,30.40
2015,07,03,16,13,30.40
2015,07,03,16,14,30.30
2015,07,03,16,15,30.30
2015,07,03,16,16,30.30
2015,07,03,16,17,30.40
2015,07,03,16,18,30.40
2015,07,03,16,19,30.40
2015,07,03,16,20,30.40
2015,07,03,16,21,30.40
2015,07,03,16,22,30.50
2015,07,03,16,23,30.40
2015,07,03,16,24,30.50
2015,07,03,16,25,30.50
2015,07,03,16,26,30.40
2015,07,03,16,27,30.30
2015,07,03,16,28,30.30
2015,07,03,16,29,30.30
2015,07,03,16,30,30.30
2015,07,03,16,31,30.30
2015,07,03,16,32,30.30
2015,07,03,16,33,30.40
2015,07,03,16,34,30.40
2015,07,03,16,35,30.50
2015,07,03,16,36,30.40
2015,07,03,16,37,30.40
2015,07,03,16,38,30.30
2015,07,03,16,39,30.30
2015,07,03,16,40,30.20
2015,07,03,16,41,30.20
2015,07,03,16,42,30.10
2015,07,03,16,43,30.10
2015,07,03,16,44,30.20
2015,07,03,16,45,30.20
2015,07,03,16,46,30.20
2015,07,03,16,47,30.20
2015,07,03,16,48,30.20
2015,07,03,16,49,30.30
2015,07,03,16,50,30.30
2015,07,03,16,51,30.30
2015,07,03,16,52,30.30
2015,07,03,16,53,30.30
2015,07,03,16,54,30.30
2015,07,03,16,55,30.30
2015,07,03,16,56,30.30
2015,07,03,16,57,30.30
2015,07,03,16,58,30.20
2015,07,03,16,59,30.20
2015,07,03,17,00,30.10
2015,07,03,17,01,30.10
2015,07,03,17,02,30.10
2015,07,03,17,03,30.10
2015,07,03,17,04,30.10
2015,07,03,17,05,30.10
2015,07,03,17,06,30.10
2015,07,03,17,07,30.10
2015,07,03,17,08,30.10
2015,07,03,17,09,30.10
2015,07,03,17,10,30.00
2015,07,03,17,11,30.10
2015,07,03,17,12,30.10
2015,07,03,17,13,30.10
2015,07,03,17,14,30.10
2015,07,03,17,15,30.10
2015,07,03,17,16,30.10
2015,07,03,17,17,30.10
2015,07,03,17,18,30.20
2015,07,03,17,19,30.20
2015,07,03,17,20,30.20
2015,07,03,17,21,30.10
2015,07,03,17,22,30.10
2015,07,03,17,23,30.10
2015,07,03,17,24,30.00